Hourly Weather Suhl

Today, 21 January, Thursday

Time Temperature Precipitation Wind Pressure Humidity
00:00 -1°C° 0 mm 4 mps 705 mmHg 81%
01:00 -1°C° 0 mm 4 mps 704 mmHg 81%
02:00 -1°C° 0 mm 5 mps 704 mmHg 80%
03:00 -1°C° 0 mm 5 mps 703 mmHg 80%
04:00 0°C° 0 mm 5 mps 703 mmHg 79%
05:00 0°C° 0 mm 5 mps 703 mmHg 79%
06:00 -1°C° 0 mm 6 mps 702 mmHg 79%
07:00 -1°C° 0 mm 6 mps 702 mmHg 79%
08:00 -1°C° 0 mm 6 mps 702 mmHg 79%
09:00 0°C° 0 mm 7 mps 703 mmHg 78%
10:00 0°C° 0 mm 7 mps 703 mmHg 77%
11:00 0°C° 0.2 mm 7 mps 703 mmHg 82%
12:00 0°C° 0.2 mm 7 mps 703 mmHg 86%
13:00 +2°C° 0.2 mm 6 mps 703 mmHg 90%
14:00 +2°C° 0.1 mm 6 mps 703 mmHg 91%
15:00 +2°C° 0.1 mm 6 mps 703 mmHg 92%
16:00 +2°C° 0.1 mm 6 mps 703 mmHg 94%
17:00 +2°C° 0 mm 5 mps 703 mmHg 92%
18:00 +1°C° 0 mm 5 mps 703 mmHg 91%
19:00 +1°C° 0 mm 5 mps 703 mmHg 89%
20:00 +1°C° 0.3 mm 5 mps 702 mmHg 91%
21:00 +2°C° 0.3 mm 6 mps 702 mmHg 92%
22:00 +2°C° 0.3 mm 6 mps 701 mmHg 94%
23:00 +2°C° 0.7 mm 7 mps 701 mmHg 93%

Tomorrow, 22 January, Friday

Time Temperature Precipitation Wind Pressure Humidity
00:00 +2°C° 0.7 mm 7 mps 700 mmHg 92%
01:00 +1°C° 0.7 mm 8 mps 700 mmHg 90%
02:00 +1°C° 0.3 mm 8 mps 700 mmHg 90%
03:00 +1°C° 0.3 mm 8 mps 699 mmHg 90%
04:00 +2°C° 0.3 mm 7 mps 699 mmHg 90%
05:00 +2°C° 0 mm 7 mps 699 mmHg 89%
06:00 +2°C° 0 mm 7 mps 698 mmHg 89%
07:00 0°C° 0 mm 7 mps 698 mmHg 89%
08:00 +2°C° 0 mm 6 mps 698 mmHg 89%
09:00 +2°C° 0 mm 6 mps 698 mmHg 90%
10:00 +2°C° 0 mm 6 mps 698 mmHg 91%
11:00 +2°C° 0.1 mm 5 mps 698 mmHg 91%
12:00 +2°C° 0.1 mm 5 mps 698 mmHg 92%
13:00 +3°C° 0.1 mm 4 mps 698 mmHg 92%
14:00 +3°C° 0.4 mm 3 mps 698 mmHg 94%
15:00 +2°C° 0.4 mm 3 mps 698 mmHg 95%
16:00 +3°C° 0.4 mm 2 mps 698 mmHg 97%
17:00 +2°C° 0.9 mm 2 mps 698 mmHg 97%
18:00 +2°C° 0.9 mm 2 mps 698 mmHg 97%
19:00 +1°C° 0.9 mm 2 mps 698 mmHg 98%
20:00 +1°C° 1.6 mm 2 mps 699 mmHg 98%
21:00 +1°C° 1.6 mm 2 mps 699 mmHg 98%
22:00 -1°C° 1.6 mm 2 mps 699 mmHg 98%
23:00 -1°C° 1.3 mm 2 mps 699 mmHg 98%

Day after tomorrow, 23 January, Saturday

Time Temperature Precipitation Wind Pressure Humidity
00:00 -1°C° 1.3 mm 3 mps 700 mmHg 98%
01:00 -1°C° 1.3 mm 3 mps 700 mmHg 97%
02:00 -2°C° 1.2 mm 3 mps 700 mmHg 97%
03:00 -2°C° 1.2 mm 3 mps 700 mmHg 97%
04:00 -2°C° 1.2 mm 2 mps 700 mmHg 97%
05:00 -2°C° 0.4 mm 2 mps 700 mmHg 97%
06:00 0°C° 0.4 mm 1 mps 700 mmHg 96%
07:00 0°C° 0.4 mm 1 mps 700 mmHg 96%
08:00 0°C° 0 mm 1 mps 701 mmHg 95%
09:00 0°C° 0 mm 1 mps 701 mmHg 94%
10:00 +1°C° 0 mm 1 mps 701 mmHg 94%
11:00 +1°C° 0 mm 1 mps 701 mmHg 93%
12:00 +1°C° 0 mm 1 mps 701 mmHg 93%
13:00 +1°C° 0 mm 2 mps 701 mmHg 92%
14:00 -1°C° 0 mm 2 mps 701 mmHg 93%
15:00 -1°C° 0 mm 2 mps 700 mmHg 93%
16:00 -1°C° 0 mm 2 mps 700 mmHg 94%
17:00 -2°C° 0 mm 2 mps 700 mmHg 94%
18:00 -2°C° 0 mm 2 mps 700 mmHg 95%
19:00 -3°C° 0 mm 2 mps 700 mmHg 96%
20:00 -3°C° 0 mm 2 mps 700 mmHg 96%
21:00 -1°C° 0 mm 1 mps 700 mmHg 96%
22:00 -1°C° 0 mm 1 mps 701 mmHg 95%
23:00 -1°C° 0 mm 1 mps 701 mmHg 95%

24 January, Sunday

Time Temperature Precipitation Wind Pressure Humidity
00:00 -1°C° 0 mm 1 mps 701 mmHg 95%
01:00 -1°C° 0 mm 1 mps 701 mmHg 95%
02:00 -1°C° 0 mm 1 mps 701 mmHg 95%
03:00 -1°C° 0 mm 1 mps 701 mmHg 95%
04:00 -2°C° 0 mm 1 mps 701 mmHg 95%
05:00 -2°C° 0 mm 1 mps 701 mmHg 95%
06:00 -2°C° 0 mm 1 mps 702 mmHg 95%
07:00 -2°C° 0 mm 1 mps 702 mmHg 95%
08:00 -1°C° 0 mm 1 mps 702 mmHg 94%
09:00 -1°C° 0 mm 1 mps 703 mmHg 93%
10:00 -1°C° 0 mm 1 mps 703 mmHg 92%
11:00 0°C° 0 mm 1 mps 703 mmHg 89%
12:00 0°C° 0 mm 1 mps 703 mmHg 86%
13:00 +1°C° 0 mm 1 mps 703 mmHg 83%
14:00 0°C° 0.1 mm 1 mps 703 mmHg 85%
15:00 0°C° 0.1 mm 1 mps 703 mmHg 87%
16:00 0°C° 0.1 mm 1 mps 703 mmHg 89%
17:00 -1°C° 0.1 mm 1 mps 704 mmHg 91%
18:00 -2°C° 0.1 mm 1 mps 704 mmHg 92%
19:00 -3°C° 0.1 mm 1 mps 704 mmHg 93%
20:00 -4°C° 0 mm 1 mps 704 mmHg 94%
21:00 -4°C° 0 mm 1 mps 704 mmHg 94%
22:00 -4°C° 0 mm 1 mps 704 mmHg 94%
23:00 -4°C° 0 mm 1 mps 704 mmHg 94%

25 January, Monday

Time Temperature Precipitation Wind Pressure Humidity
00:00 -4°C° 0 mm 1 mps 704 mmHg 95%
01:00 -4°C° 0 mm 1 mps 704 mmHg 95%
02:00 -4°C° 0 mm 1 mps 704 mmHg 95%
03:00 -4°C° 0 mm 1 mps 704 mmHg 95%
04:00 -4°C° 0 mm 1 mps 704 mmHg 95%
05:00 -4°C° 0 mm 1 mps 705 mmHg 95%
06:00 -4°C° 0 mm 1 mps 705 mmHg 94%
07:00 -4°C° 0 mm 1 mps 705 mmHg 94%
08:00 -4°C° 0 mm 1 mps 705 mmHg 92%
09:00 -3°C° 0 mm 1 mps 706 mmHg 91%
10:00 -3°C° 0 mm 1 mps 706 mmHg 89%
11:00 -2°C° 0 mm 1 mps 706 mmHg 88%
12:00 -1°C° 0 mm 1 mps 707 mmHg 87%
13:00 -1°C° 0 mm 1 mps 707 mmHg 85%
14:00 -1°C° 0 mm 1 mps 707 mmHg 85%
15:00 -2°C° 0 mm 0 mps 707 mmHg 85%
16:00 -2°C° 0 mm 0 mps 708 mmHg 86%
17:00 -3°C° 0 mm 0 mps 708 mmHg 87%
18:00 -3°C° 0 mm 0 mps 708 mmHg 89%
19:00 -4°C° 0 mm 0 mps 709 mmHg 91%
20:00 -4°C° 0 mm 0 mps 709 mmHg 91%
21:00 -5°C° 0 mm 0 mps 710 mmHg 91%
22:00 -5°C° 0 mm 0 mps 710 mmHg 91%
23:00 -4°C° 0 mm 1 mps 710 mmHg 92%

26 January, Tuesday

Time Temperature Precipitation Wind Pressure Humidity
00:00 -4°C° 0 mm 1 mps 711 mmHg 93%
01:00 -6°C° 0 mm 1 mps 711 mmHg 94%
02:00 -4°C° 0 mm 1 mps 711 mmHg 94%
03:00 -4°C° 0 mm 1 mps 711 mmHg 95%
04:00 -4°C° 0 mm 1 mps 711 mmHg 96%
05:00 -4°C° 0 mm 1 mps 712 mmHg 96%
06:00 -4°C° 0 mm 1 mps 712 mmHg 96%
07:00 -4°C° 0 mm 1 mps 712 mmHg 95%
08:00 -6°C° 0 mm 2 mps 712 mmHg 94%
09:00 -5°C° 0 mm 2 mps 712 mmHg 93%
10:00 -5°C° 0 mm 2 mps 712 mmHg 92%
11:00 -5°C° 0 mm 3 mps 712 mmHg 90%
12:00 -5°C° 0 mm 3 mps 711 mmHg 89%
13:00 -4°C° 0 mm 3 mps 711 mmHg 87%
14:00 -4°C° 0 mm 3 mps 711 mmHg 89%
15:00 -4°C° 0 mm 3 mps 710 mmHg 91%
16:00 -3°C° 0 mm 2 mps 710 mmHg 94%
17:00 -3°C° 0.1 mm 2 mps 709 mmHg 94%
18:00 -4°C° 0.1 mm 3 mps 708 mmHg 95%
19:00 -4°C° 0.1 mm 3 mps 708 mmHg 96%
20:00 -4°C° 0.3 mm 3 mps 707 mmHg 96%
21:00 -4°C° 0.3 mm 3 mps 706 mmHg 95%
22:00 -4°C° 0.3 mm 3 mps 705 mmHg 95%
23:00 -2°C° 0.8 mm 3 mps 704 mmHg 95%
Show more